Regional Weather Roundup
Issued by NWS

Home | Current Version | Previous Version | Text Only | Print | Product List | Glossary Off
Versions: 1 2 3 4 5 6 7 8 9 10 11 12 13 14 15 16 17 18 19 20 21 22 23 24 25 26 27 28 29 30 31 32 33 34 35 36 37 38 39 40 41 42 43 44 45 46 47 48 49

000
ASUS43 KDMX 280107
RWRIA

WEATHER ROUNDUP FOR IOWA
NATIONAL WEATHER SERVICE DES MOINES IA
800 PM CDT THU AUG 27 2015

NOTE: "FAIR" INDICATES FEW OR NO CLOUDS BELOW 12,000 FEET WITH NO
SIGNIFICANT WEATHER AND/OR OBSTRUCTIONS TO VISIBILITY.

* - THESE STATIONS ARE NOT NWS STATIONS...THUS NOT UNDER NWS
QUALITY CONTROL.  THEY ALSO DO NOT REPORT WEATHER SUCH
AS PRECIPITATION OR FOG.

IAZ001>003-012>014-020>022-031>034-043>046-280200-
   NORTHWEST IOWA

CITY           SKY/WX    TMP DP  RH WIND       PRES   REMARKS
CARROLL *      CLEAR     68  64  88 E7        29.99R
CHEROKEE *     TSTM      68  66  94 NE8       30.00R
DENISON *      CLEAR     72  66  83 E12       29.94R
LE MARS *      LGT RAIN  72  70  94 E8G17     29.95F
ORANGE CITY *  CLOUDY    70  64  83 E12G20    29.97F
SHELDON *      DRIZZLE   66  64  94 E14G21    29.97F
SIOUX CITY     CLOUDY    74  67  78 E12       29.90F
SPENCER        LGT RAIN  67  61  81 E8        30.04R
STORM LAKE *   CLEAR     68  64  88 E7G14     30.01R
$$

IAZ055>058-069>071-079>083-090>094-280200-
   SOUTHWEST IOWA

CITY           SKY/WX    TMP DP  RH WIND       PRES   REMARKS
ATLANTIC *     CLEAR     73  66  78 SE9       29.95S
AUDUBON *      CLEAR     68  64  88 E9        29.98R
CLARINDA *     CLEAR     72  66  83 SE6G14    29.96S
COUNCIL BLFS * CLEAR     73  68  83 SE7       29.93R
CRESTON *      CLEAR     68  64  88 SE9       29.99F
HARLAN  *      CLEAR     72  72 100 SE8       29.98R
LAMONI         MOCLDY    69  62  78 SE5       29.98F
RED OAK *      CLEAR     73  68  83 SE8G14    29.94R
SHENANDOAH *   CLEAR     73  68  83 SE8       29.93S
$$

IAZ047>049-059>061-072>074-084-280200-
   CENTRAL IOWA

CITY           SKY/WX    TMP DP  RH WIND       PRES   REMARKS
AMES             N/A     67  61  81 SE7       30.01F
ANKENY *       CLEAR     68  63  83 E7        30.01S
CHARITON *     MOCLDY    68  63  83 SE7       30.01F
DES MOINES     MOCLDY    71  61  70 E12       30.01R
GRINNELL*      MOCLDY    66  61  82 E6        30.06R
KNOXVILLE *    PTCLDY    68  61  77 E6        30.01S
MARSHALLTOWN   MOCLDY    66  62  87 E10       30.03F
PELLA *        PTCLDY    68  64  88 SE5       30.04S
PERRY *          N/A     68  64  88 E7        30.00S
$$

IAZ004>006-015-016-023>025-035-036-280200-
   NORTH CENTRAL IOWA

CITY           SKY/WX    TMP DP  RH WIND       PRES   REMARKS
ALGONA *       MOCLDY    66  61  82 SE6       30.02S
CLARION *      CLEAR     64  61  88 SE7       30.02S
ESTHERVILLE    CLOUDY    65  62  90 S5        30.03S
FORT DODGE *   CLEAR     66  59  77 E7        30.02S
MASON CITY     CLOUDY    65  60  84 E6        30.05R
FOREST CITY *  CLEAR     64  59  82 E6        30.01F
IOWA FALLS *     N/A     66  63  88 SE8       30.04S
$$

IAZ007>011-017>019-026>030-037>042-050>054-066-280200-
   NORTHEAST IOWA

CITY           SKY/WX    TMP DP  RH WIND       PRES   REMARKS
CEDAR RAPIDS   CLOUDY    66  62  87 E6        30.07F
CHARLES CITY * PTCLDY    64  63  94 E5        30.05F
CLINTON *      MOCLDY    64  61  88 NW6       30.14R
DECORAH *      MOCLDY    66  61  82 S3        30.07R
DUBUQUE        CLOUDY    66  60  81 SE3       30.11F
MONTICELLO *   CLEAR     68  61  77 CALM      30.09F
OELWEIN *        N/A     66  61  82 NE5G16    30.05F
WATERLOO       CLOUDY    68  59  73 S13       30.02F
$$

IAZ064-065-067-068-078-280200-
   EAST CENTRAL IOWA

CITY           SKY/WX    TMP DP  RH WIND       PRES   REMARKS
DAVENPORT      MOCLDY    65  60  84 NW3       30.13R
IOWA CITY      MOCLDY    69  60  73 E9        30.06F
MT. PLEASANT * PTCLDY    68  59  73 E5        30.08F
MUSCATINE *    CLEAR     68  59  73 E5        30.10S
QUAD CITIES    MOCLDY    68  59  73 W3        30.12R
$$

IAZ062-063-075>077-085>089-095>099-280200-
   SOUTHEAST IOWA

CITY           SKY/WX    TMP DP  RH WIND       PRES   REMARKS
BURLINGTON     MOCLDY    69  61  75 E3        30.08R
FAIRFIELD *    PTCLDY    66  59  77 E7        30.05F
FORT MADISON * CLEAR     64  61  88 SE3       30.08F
KEOKUK *       CLEAR     68  61  77 E5        30.07R
OSKALOOSA *      N/A     64  61  88 E3        30.05R
CENTERVILLE *  CLEAR     66  63  88 E7        30.05S
OTTUMWA        MOCLDY    66  61  84 SE7       30.02F
WASHINGTON *     N/A    N/A N/A N/A MISG        N/A
$$

ABBREVIATIONS USED IN REMARKS
   TC - TEMPERATURES IN CELSIUS
  WCI - WIND CHILL INDEX
   HX - HEAT INDEX
  VSB - VISIBILITY
$$




USA.gov is the U.S. government's official web portal to all federal, state and local government web resources and services.